Location: Zagreb
(45.8000°N, 16.0000°E)
Time: 06:31:23
(UTC+02:00)

Transit 2A Rocket - Visible Passes

Search period start: 26 June 2022 00:00
Search period end: 06 July 2022 00:00
Orbit: 593 x 908 km, 66.7° (Epoch: 25 June)

Date Brightness Start Highest point End Pass type
(mag) Time Alt. Az. Time Alt. Az. Time Alt. Az.
30 Jun 7.5 04:17:01 10° SE 04:18:52 12° ESE 04:20:40 10° E visible
02 Jul 6.5 04:30:56 10° S 04:35:19 29° ESE 04:39:24 10° NE visible
03 Jul 7.1 03:49:29 10° SSE 03:52:42 17° ESE 03:55:46 10° ENE visible
05 Jul 5.8 04:04:29 10° S 04:09:13 40° ESE 04:13:36 10° NE visible
